Regional Weather Roundup
Issued by NWS

Home | Current Version | Previous Version | Text Only | Print | Product List | Glossary Off
Versions: 1 2 3 4 5 6 7 8 9 10 11 12 13 14 15 16 17 18 19 20 21 22 23 24 25 26 27 28 29 30 31 32 33 34 35 36 37 38 39 40 41 42 43 44 45 46 47 48 49 50

000
ASUS43 KIND 251909
RWRIN

WEATHER ROUNDUP FOR INDIANA
NATIONAL WEATHER SERVICE INDIANAPOLIS IN
300 PM EDT SUN SEP 25 2016

NOTE: "FAIR" INDICATES FEW OR NO CLOUDS BELOW 12,000 FEET WITH NO
SIGNIFICANT WEATHER AND/OR OBSTRUCTIONS TO VISIBILITY.

* - STATION DOES NOT REPORT WEATHER SUCH AS PRECIPITATION OR FOG.

+ - STATION NOT QUALITY CONTROLLED BY THE NATIONAL WEATHER SERVICE.
    USE DATA WITH CAUTION...ESPECIALLY DEWPOINT AND RELATIVE
    HUMIDITY OBSERVATIONS.

INZ001>003-010>013-019-020-252000-
NORTHWEST INDIANA

CITY           SKY/WX    TMP DP  RH WIND       PRES   REMARKS
GARY /AIRPORT/ PTSUNNY   84  66  54 S7        30.02F
KNOX *+        SUNNY     82  34  17 SE6       30.03F
LA PORTE +     SUNNY     85  64  50 S10G16    30.03F
MICHIGAN CITY+ MOSUNNY   82  64  54 CALM      30.02F
MONTICELLO +   PTSUNNY   85  61  44 S7        30.03F
RENSSELAER +   MOSUNNY   86  61  42 SE6       30.02F
VALPARAISO     SUNNY     84  64  50 S8        30.03F

$$

LMZ046-743>745-252000-
SOUTHERN LAKE MICHIGAN

STATION/POSITION TIME  TEMP    WIND        PRES    WAVE
                       AIR SEA DIR/SP/G            HT
                 (UTC) (F)     (DEG/KT/KT) (MB)    (FT)
BURNS HARBOR     1800   81     170/  8/ 17 1017.3F
MICHIGAN CITY    1800   78     150/ 10/ 12   N/A
5NW MICH CITY    1900   75 69  160/  6/  8   N/A     1

$$

INZ004-005-014>016-021>024-252000-
NORTH CENTRAL INDIANA

CITY           SKY/WX    TMP DP  RH WIND       PRES   REMARKS
ELKHART        SUNNY    N/A N/A N/A E7        30.06F
GOSHEN         MOSUNNY   80  61  52 SE6       30.07F
LOGANSPORT +   CLOUDY    82  63  51 SW7       30.06F
PERU/GRISSOM   MOSUNNY   84  65  52 S5        30.05F
ROCHESTER +    SUNNY     84  68  58 SE5       30.06F
SOUTH BEND     MOSUNNY   80  65  59 SE9       30.04F
WARSAW +       SUNNY     79  55  44 CALM      30.07F

$$

INZ006>009-017-018-025>027-252000-
NORTHEAST INDIANA

CITY           SKY/WX    TMP DP  RH WIND       PRES   REMARKS
ANGOLA *+      MOSUNNY   77  70  78 E7        30.10F
AUBURN +       MOSUNNY   77  57  50 SE6       30.10F
FORT WAYNE     MOSUNNY   81  62  52 VRB3      30.09F
HUNTINGTON +   SUNNY    N/A N/A N/A CALM      30.08F
KENDALLVILLE + SUNNY     78  59  51 S5        30.10F

$$

INZ028-029-035-036-043>045-051>053-252000-
WEST CENTRAL INDIANA

CITY           SKY/WX    TMP DP  RH WIND       PRES   REMARKS
CRAWFORDSVL +  MOSUNNY   86  65  49 SW6       30.05F
GREENCASTLE +  MOSUNNY   82  70  65 CALM      30.07F
LAFAYETTE      MOSUNNY   86  67  52 S9        30.02F
TERRE HAUTE    SUNNY     87  67  51 SW9       30.04F

$$

INZ030>032-037>040-046>048-054>057-064-065-252000-
CENTRAL INDIANA

CITY           SKY/WX    TMP DP  RH WIND       PRES   REMARKS
COLUMBUS       SUNNY     84  68  58 SW5       30.07F
FISHERS *+     MOSUNNY   84  70  61 CALM      30.07F
GREENWOOD *+   MOSUNNY  N/A N/A N/A CALM      30.07F
INDIANAPOLIS   MOSUNNY   84  66  54 S6        30.06F
-EAGLE CREEK   MOSUNNY   85  66  53 VRB5      30.06F
MARION +       MOSUNNY   83  63  50 SE3       30.08F HAZE
MT COMFORT *+  MOSUNNY   84  66  54 CALM      30.07F
SHELBYVILLE    PTSUNNY   86  64  47 S5        30.06F
ZIONSVILLE +   SUNNY     83  66  56 S7        30.08F

$$

INZ033-034-041-042-049-050-058-059-252000-
EAST CENTRAL INDIANA

CITY           SKY/WX    TMP DP  RH WIND       PRES   REMARKS
MUNCIE         MOSUNNY   85  63  47 VRB5      30.08F

$$

INZ060-061-067>069-081>083-085>088-252000-
SOUTHWEST INDIANA

CITY           SKY/WX    TMP DP  RH WIND       PRES   REMARKS
EVANSVILLE     SUNNY     91  64  40 VRB3      30.05F
HUNTINGBURG *+   N/A     88  64  45 CALM      30.06F
WASHINGTON +   SUNNY    N/A N/A N/A MISG      30.04F

$$

INZ062-063-066-070>080-084-089>092-252000-
SOUTH CENTRAL AND SOUTHEAST INDIANA

CITY           SKY/WX    TMP DP  RH WIND       PRES   REMARKS
BEDFORD +      SUNNY    N/A N/A N/A CALM      30.06F
BLOOMINGTON    MOSUNNY   85  66  53 W6        30.07F
MADISON *+     MOSUNNY   86  61  42 CALM      30.09F
NORTH VERNON + MOSUNNY   84  73  70 CALM      30.09F
SEYMOUR +      PTSUNNY   88  64  45 CALM      30.06F

$$




USA.gov is the U.S. government's official web portal to all federal, state and local government web resources and services.